Zurück zum Katalog

COSMOS 2468

AktivMilitärPO
NORAD 37154·PAYLOAD·🇷🇺 Russia

Gestartet Sep 8, 2010 von Plesetsk Cosmodrome

Loading…

Nächste Überflüge (nächste 24 Stunden)

TLE

AktuellSource: Space-Track

Epoche: Sep 14, 2026, 14:24 UTC

1 37154U 10043C   26257.60000017  .00000036  00000-0  18576-3 0  9993
2 37154  82.4663   6.2415 0015652 113.3940 257.7323 12.43749591726996

Verfolge COSMOS 2468 in Echtzeit mit AllMySat

Download on the App Store